SCP
0 0 0 0 0 0 0 0 0 0 0 0 0 0 0 0 0 0 0 -0 -0 -0 0 0 0 0 0 0 -0 0 0 0 0 0 0 0 0 0 0 0 0 0 0
0 0 0 0 0 0 0 0 0 0 0 0 0 0 0 0 0 0 0 -0 -0 -0 0 0 0 0 0 0 -0 0 0 0 0 0 0 0 0 0 0 0 0 0 0
0 0 0 0 0 0 0 0 0 0 0 0 0 0 0 0 0 0 0 0 -0 -0 0 0 0 0 0 0 0 0 0 0 0 0 0 0 0 0 0 0 0 0 0
0 0 0 0 0 0 0 0 0 0 0 0 0 0 0 0 0 0 0 0 0 0 0 0 0 0 0 0 0 0 0 0 0 0 0 0 0 0 0 0 0 0 0
0 0 0 0 0 0 0 0 0 0 0 0 0 0 0 0 0 0 0 0 0 0 0 0 0 0 0 0 0 0 0 0 0 0 0 0 0 0 0 0 0 0 0
0 0 0 0 0 0 0 0 0 0 0 0 0 0 0 0 0 0 0 0 0 0 0 0 0 0 0 0 0 0 0 0 0 0 0 0 0 0 0 0 0 0 0
0 0 0 0 0 0 0 0 0 0 0 0 0 0 0 0 0 0 0 0 0 -0 0 0 0 0 0 0 0 0 0 0 0 0 0 0 0 0 0 0 0 0 0
0 0 0 0 0 0 0 0 0 0 0 0 0 0 0 0 0 0 0 0 0 0 0 0 0 0 0 0 0 0 0 0 0 0 0 0 0 0 0 0 0 0 0
0 0 0 0 0 0 0 0 0 0 0 0 0 0 0 0 0 0 0 0 0 0 0 0 0 0 0 0 0 0 0 0 0 0 0 0 0 0 0 0 0 0 0
0 0 0 0 0 0 0 0 0 0 0 0 0 0 0 0 0 0 0 0 0 0 0 0 0 0 0 0 0 0 0 0 0 0 0 0 0 0 0 0 0 0 0
0 0 0 0 0 0 0 0 0 0 0 0 0 0 0 0 0 0 0 0 0 0 0 0 0 0 0 0 0 0 0 0 0 0 0 0 0 0 0 0 0 0 0
0 0 0 0 0 0 0 0 0 0 0 0 0 0 0 0 0 0 0 0 0 0 0 0 0 0 0 0 0 0 0 0 0 0 0 0 0 0 0 0 0 0 0
0 0 0 0 0 0 0 0 0 0 0 0 0 0 0 0 0 0 0 0 0 0 0 0 0 0 0 0 0 0 0 0 0 0 0 0 0 0 0 0 0 0 0
0 0 0 0 0 0 0 0 0 0 0 0 0 0 0 0 0 0 0 0 0 0 0 0 0 0 0 0 0 0 0 0 0 0 0 0 0 0 0 0 0 0 0
0 0 0 0 0 0 0 0 0 0 0 0 0 0 0 0 0 0 0 0 0 0 0 0 0 0 0 0 0 0 0 0 0 0 0 0 0 0 0 0 0 0 0
0 0 0 0 0 0 0 0 0 0 0 0 0 0 0 0 0 0 0 0 0 0 0 0 0 0 0 0 0 0 0 0 0 0 0 0 0 0 0 0 0 0 0
0 0 0 0 0 0 0 0 0 0 0 0 0 0 0 0 0 0 0 0 0 0 0 0 0 0 0 0 0 0 0 0 0 0 0 0 0 0 0 0 0 0 0
0 0 0 0 0 0 0 0 0 0 0 0 0 0 0 0 0 0 0 0 0 0 0 0 0 0 0 0 0 0 0 0 0 0 0 0 0 0 0 0 0 0 0
0 0 0 0 0 0 0 0 0 0 0 0 0 0 0 0 0 0 0 0 0 0 0 0 0 0 0 0 0 0 0 0 0 0 0 0 0 0 0 0 0 0 0
0 0 0 0 0 0 0 0 0 0 0 0 0 0 0 0 0 0 0 0 0 0 0 0 0 0 0 0 0 0 0 0 0 0 0 0 0 0 0 0 0 0 0
0 0 0 0 0 0 0 0 0 0 0 0 0 0 0 0 0 0 0 0 0 0 0 0 0 0 0 0 0 0 0 0 0 0 0 0 0 0 0 0 0 0 0
0 0 0 0 0 0 0 0 0 0 0 0 0 0 0 0 0 0 0 0 0 0 0 0 0 0 0 0 0 0 0 0 0 0 0 0 0 0 0 0 0 0 0
0 0 0 0 0 0 0 0 0 0 0 0 0 0 0 0 0 0 0 0 0 0 0 0 0 0 0 0 0 0 0 0 0 0 0 0 0 0 0 0 0 0 0
0 -0 0 0 0 0 0 0 0 0 0 0 0 0 0 0 0 0 0 0 0 0 0 0 0 0 0 0 0 0 0 0 0 0 0 0 0 0 0 0 0 0 0
0 -0 -0 -0 0 0 0 0 0 0 0 0 0 0 0 0 0 0 0 0 0 0 0 0 0 0 0 0 0 0 0 0 0 0 0 0 0 0 0 0 0 0 0
0 0 0 0 0 0 0 0 0 0 0 0 0 0 0 0 0 0 0 0 0 0 0 0 0 0 0 0 0 0 0 0 0 0 0 0 0 0 0 0 0 0 0
Wind_Speed
3 2 2 2 2 2 2 2 1 1 1 1 2 2 2 2 2 2 2 3 3 2 2 2 2 2 1 1 1 1 2 2 5 5 2 2 3 5 6 5 5 5 7
3 3 3 2 2 2 2 2 1 1 1 2 1 2 2 2 2 3 4 3 3 3 3 2 2 1 2 1 1 2 2 3 4 6 4 3 4 5 5 6 6 6 6
3 3 3 2 2 2 2 2 2 1 1 1 1 1 2 2 2 3 3 3 3 3 3 3 3 2 2 1 2 2 2 2 3 4 5 3 3 4 5 6 6 5 6
3 3 3 3 3 3 2 2 2 2 2 1 1 1 2 2 2 2 2 2 2 2 2 2 2 2 2 2 2 2 2 3 3 4 5 5 4 4 4 5 6 5 6
4 4 4 3 3 2 2 2 1 1 2 1 1 1 1 1 2 2 2 2 2 1 1 1 1 2 2 2 2 2 2 3 3 4 5 5 5 4 5 4 6 6 6
5 4 3 3 3 2 2 2 1 1 1 1 1 1 1 1 1 3 2 2 1 1 1 1 1 2 3 4 5 5 4 4 4 4 5 6 7 6 5 5 6 6 6
5 4 3 3 3 3 2 2 2 2 1 1 1 1 2 2 1 2 2 2 1 2 2 2 2 2 3 3 5 6 6 7 7 5 6 7 8 7 6 6 6 7 8
5 4 4 3 3 2 2 3 2 2 2 2 2 2 2 2 2 2 2 2 1 2 2 2 3 3 3 4 3 4 4 5 6 5 7 8 7 6 5 6 7 8 8
5 5 5 4 4 3 3 3 2 2 2 2 2 2 2 2 2 2 2 1 2 2 2 2 3 3 5 5 3 4 5 6 6 8 10 10 11 11 8 4 5 5 7
6 5 4 5 5 5 4 3 2 2 2 2 2 2 2 2 3 3 3 1 2 2 2 2 3 5 6 6 3 4 6 6 5 5 7 9 8 9 9 6 5 6 6
5 4 4 4 4 4 3 2 2 2 2 1 2 2 2 2 4 4 4 2 2 2 2 2 3 6 7 7 5 4 7 6 4 5 5 5 5 5 5 5 5 6 7
4 4 4 4 3 3 3 2 2 2 2 2 1 2 2 2 3 4 5 4 3 3 3 3 3 6 7 7 6 6 8 6 4 4 5 5 5 5 5 5 6 7 8
4 4 4 3 3 3 4 3 2 2 2 2 2 2 2 2 2 4 5 5 4 3 3 4 6 7 7 5 6 7 5 3 3 4 5 6 5 5 5 5 6 6 8
5 4 4 4 3 3 3 3 3 3 3 3 3 3 2 2 2 2 2 2 3 3 2 3 5 6 5 5 4 4 3 3 4 5 6 6 5 4 5 4 5 5 5
4 4 4 3 3 3 3 3 3 3 4 4 4 3 3 4 4 4 2 2 1 2 1 1 2 2 2 3 3 3 3 3 4 4 5 5 5 5 5 4 4 4 5
4 4 3 3 3 3 2 1 4 4 4 5 5 4 3 5 6 6 6 6 5 3 1 2 3 3 3 4 4 4 4 4 4 4 5 5 5 5 5 4 4 4 6
4 4 3 3 3 3 3 2 2 2 3 4 4 5 5 5 6 6 6 5 4 2 1 3 4 4 4 4 4 4 5 4 4 4 5 5 5 5 5 5 5 5 6
3 4 3 3 3 3 3 3 2 2 2 2 3 5 5 6 5 5 4 3 2 2 2 4 4 4 4 4 4 5 5 4 4 4 5 5 5 5 5 5 5 6 7
3 3 3 2 2 3 2 2 2 2 2 2 2 3 4 5 4 3 2 1 3 3 3 4 4 4 4 5 5 4 4 5 5 5 5 5 5 5 5 6 6 7 7
2 3 3 3 2 2 2 2 2 2 2 2 3 2 1 1 1 2 1 2 3 4 4 4 4 4 4 4 4 4 4 5 5 5 5 5 5 5 6 7 6 6 6
2 3 3 3 3 3 3 3 3 3 3 3 3 3 4 2 2 3 3 3 4 4 4 4 4 4 4 4 4 4 5 5 5 5 5 5 5 5 5 6 6 6 6
2 2 2 2 2 2 2 2 3 3 3 3 3 3 4 2 2 3 4 4 4 4 4 4 5 4 4 4 4 4 5 6 5 5 5 5 5 6 6 6 6 6 6
3 3 2 2 2 2 2 2 3 3 3 3 3 3 3 3 3 4 4 4 4 4 4 4 4 5 4 4 4 5 6 6 6 6 6 6 6 6 6 6 7 7 7
3 3 3 2 2 2 3 3 3 3 3 3 3 3 4 4 4 5 4 4 4 4 4 4 5 7 8 6 5 5 6 7 6 6 8 8 8 7 7 6 7 7 7
3 3 3 3 3 3 3 3 3 3 4 4 4 4 4 4 4 4 4 4 4 5 5 5 5 6 8 9 8 7 9 11 10 7 7 7 8 8 7 7 7 7 7
2 2 2 2 3 3 3 4 4 4 4 4 4 4 4 4 4 4 4 4 4 4 5 5 6 7 8 8 9 11 11 12 11 10 7 6 7 7 6 6 8 7 6
Wind_Direction
197 184 174 179 169 169 182 204 210 210 207 211 209 204 199 193 188 181 189 184 192 200 196 191 210 203 208 219 219 227 235 233 259 279 271 289 290 298 303 296 290 290 294
192 178 179 182 172 180 198 207 194 211 222 212 201 196 190 191 192 191 200 196 196 199 203 193 215 203 207 220 219 233 239 237 247 276 290 289 283 294 299 297 299 296 290
180 177 178 183 186 201 204 196 190 198 205 201 183 194 203 201 199 201 199 194 197 202 200 198 208 188 220 232 226 241 248 256 249 266 284 289 288 304 309 301 296 290 292
177 180 191 200 199 204 198 187 188 185 190 200 203 213 212 204 198 193 183 187 193 194 202 204 205 203 220 233 238 249 256 261 265 268 279 288 289 300 304 303 306 301 297
180 191 207 202 191 186 190 189 184 185 197 196 183 208 214 208 208 189 187 188 184 184 206 221 224 241 250 247 250 250 250 257 267 272 279 288 291 305 300 301 298 305 295
189 201 200 189 185 185 190 183 177 189 191 176 187 200 214 223 206 199 188 175 180 196 231 246 250 246 262 264 266 266 257 251 258 264 272 279 286 290 294 294 298 308 300
192 197 192 188 191 192 183 176 189 200 185 194 203 203 231 249 226 212 200 176 193 217 232 252 268 276 262 262 269 271 267 264 258 256 264 269 279 284 289 286 286 285 281
191 193 189 186 194 188 183 193 199 194 194 203 207 216 235 263 244 235 214 192 216 237 240 242 257 276 272 272 273 276 272 268 266 258 260 268 273 281 277 279 283 284 280
198 200 196 189 191 191 200 204 199 194 200 201 194 203 226 267 259 254 236 210 231 249 250 249 253 263 281 287 274 275 283 281 279 273 272 276 282 286 289 289 287 292 289
205 204 195 188 190 198 204 201 196 192 201 196 213 215 228 261 271 263 244 224 247 260 262 260 260 269 287 290 267 266 278 284 293 295 283 281 279 279 280 265 266 272 281
194 184 184 187 191 193 189 186 183 184 182 200 227 249 247 257 271 267 253 233 237 255 266 269 268 282 288 289 283 268 277 294 295 290 289 287 285 280 275 266 256 254 262
171 176 184 185 182 175 176 181 175 176 185 211 229 263 266 262 260 265 260 258 262 249 261 269 278 294 294 293 288 289 296 299 289 286 285 286 286 286 283 276 266 257 254
168 181 184 178 178 173 177 181 176 181 195 214 218 246 267 266 269 271 271 273 276 266 267 281 294 299 301 295 293 300 300 286 281 280 281 281 284 287 289 286 274 268 267
179 185 179 178 180 178 181 182 187 195 202 214 223 238 256 270 266 261 256 266 276 276 278 288 294 295 295 298 302 299 288 281 275 276 283 287 290 289 284 287 287 296 293
182 182 178 181 181 185 191 201 204 211 206 211 221 218 227 253 259 269 273 266 262 262 294 292 293 298 297 300 300 296 291 288 282 284 289 294 294 293 289 290 281 286 281
179 184 182 180 180 184 191 233 235 229 233 236 241 239 246 262 284 281 281 284 290 299 318 278 276 273 274 281 285 288 283 277 278 281 281 282 288 293 296 298 288 279 281
175 178 178 178 178 182 187 199 239 271 245 250 262 267 271 287 296 296 298 300 295 293 254 263 268 273 276 276 275 276 278 277 277 276 278 281 283 287 289 292 293 290 285
170 172 174 179 179 183 191 203 210 220 255 281 286 280 287 295 298 303 311 321 299 282 252 258 264 269 272 273 275 277 280 282 277 276 277 279 280 281 284 285 285 283 286
173 175 174 172 178 182 183 190 204 217 235 268 303 298 297 299 300 302 331 270 262 267 266 265 263 264 266 267 268 270 272 275 277 276 273 273 275 277 278 280 282 283 281
185 178 166 169 173 177 181 191 204 215 229 242 254 265 287 290 273 277 264 256 263 268 266 267 271 270 270 270 269 269 271 271 272 271 275 277 274 270 273 277 279 284 282
179 176 172 171 181 187 193 204 209 213 224 238 248 251 252 237 249 259 264 259 256 262 270 269 266 266 264 264 265 267 271 274 272 270 272 274 276 275 273 273 275 274 279
168 173 183 195 192 195 204 208 208 216 226 238 255 264 261 250 249 255 257 259 260 258 255 261 267 262 257 257 257 261 265 268 271 274 277 276 273 273 273 273 275 278 281
170 174 180 192 195 196 202 212 218 223 229 233 237 239 241 245 248 253 258 262 265 267 264 257 264 273 269 259 252 250 256 261 263 264 269 274 276 275 272 271 273 277 280
179 182 186 191 195 205 213 220 225 229 234 238 238 239 240 243 249 255 259 262 263 263 260 257 258 264 271 273 266 259 257 261 261 259 258 263 268 273 274 272 271 272 275
178 185 192 197 203 213 220 225 229 232 235 238 240 244 249 252 257 260 261 262 263 266 268 267 267 268 270 272 274 274 273 274 270 262 259 258 261 265 269 272 273 276 276
184 193 201 203 208 215 221 228 232 235 238 242 243 245 247 251 258 262 263 263 267 270 273 271 268 270 274 276 276 278 279 279 278 272 267 266 263 264 266 271 275 275 275